Stations météo

réclame
Mon MeteoGroup
Greifswald, Allemagne (10184): Température de l'air & dewpoint: 16.10.2019 11:00:00 - 22.10.2019 11:00:00 (CEST)Greifswald, Allemagne (10184): Température de l'air 5cm & Température de l'air -5cm: 16.10.2019 11:00:00 - 22.10.2019 11:00:00 (CEST)Greifswald, Allemagne (10184): Température de l'air -20cm & Température de l'air -100cm: 16.10.2019 11:00:00 - 22.10.2019 11:00:00 (CEST)Greifswald, Allemagne (10184): Vitesse du vent & gusts: 16.10.2019 11:00:00 - 22.10.2019 11:00:00 (CEST)Greifswald, Allemagne (10184): Direction du vent: 16.10.2019 11:00:00 - 22.10.2019 11:00:00 (CEST)Greifswald, Allemagne (10184): reduced air pressure: 16.10.2019 11:00:00 - 22.10.2019 11:00:00 (CEST)Greifswald, Allemagne (10184): visibility: 16.10.2019 11:00:00 - 22.10.2019 11:00:00 (CEST)Greifswald, Allemagne (10184): Ensoleillement: 16.10.2019 11:00:00 - 22.10.2019 11:00:00 (CEST)Greifswald, Allemagne (10184): Quantités de précipitations: 16.10.2019 11:00:00 - 22.10.2019 11:00:00 (CEST)
Date & Time tt [°C] td [°C] tt 5cm [°C] tt -5cm [°C] tt -20cm [°C] tt -100cm [°C] ff [km/h] ff [knt] fx [km/h] fx [knt] dd ppp [hPa] vv [km] sd [min] rr [mm]
22.10.2019 11:00:00 13,5 9,0 12,3 11,5 11,2 13,3 13 7 26 14 SW 1022,7 40 60 0,0
22.10.2019 10:00:00 12,3 9,2 11,2 10,2 11,2 13,3 9 5 16 9 SW 1022,2 30 60 0,0
22.10.2019 09:00:00 11,1 9,4 9,3 9,4 11,3 13,3 8 5 16 9 SSW 1022,0 17 28 0,0
22.10.2019 08:00:00 10,5 9,8 8,9 9,5 11,5 13,3 9 5 13 7 SSW 1021,9 8 0 0,0
22.10.2019 07:00:00 10,8 9,8 9,4 9,9 11,6 13,3 7 4 14 7 WSW 1021,3 14 0 0,0
22.10.2019 06:00:00 11,4 10,6 10,3 10,2 11,6 13,3 8 5 15 8 SW 1021,0 10 0 0,0
22.10.2019 05:00:00 11,9 11,6 10,9 10,0 11,8 13,3 8 4 14 7 SW 1020,9 4,8 0 0,0
22.10.2019 04:00:00 11,1 11,0 10,2 9,6 12,0 13,3 6 3 10 5 SSW 1021,0 3,6 0 0,0
22.10.2019 03:00:00 10,4 10,4 7,1 9,8 12,3 13,3 6 4 10 5 SSW 1020,8 1,2 0 0,0
22.10.2019 02:00:00 10,9 10,9 7,4 10,1 12,5 13,3 4 2 11 6 S 1020,7 1,4 0 0,0
22.10.2019 01:00:00 10,0 9,7 7,5 10,5 12,8 13,3 3 2 11 6 ESE 1020,6 0,7 0 0,0
22.10.2019 00:00:00 10,8 10,8 7,6 11,0 13,2 13,3 5 3 8 4 S 1020,3 1,3 0 0,0
21.10.2019 23:00:00 11,7 11,6 8,4 11,7 13,4 13,3 6 3 9 5 SSW 1020,2 1,6 0 0,0
21.10.2019 22:00:00 12,9 12,3 10,0 12,7 13,6 13,3 4 2 13 7 SW 1020,2 4,3 0 0,0
21.10.2019 21:00:00 14,0 12,6 13,1 13,2 13,8 13,3 10 5 18 10 W 1020,0 8 0 0,0
21.10.2019 20:00:00 14,7 12,9 13,7 13,7 13,9 13,3 8 4 15 8 SW 1019,4 10 0 0,0
21.10.2019 19:00:00 14,4 13,1 13,5 14,0 14,0 13,3 5 3 16 8 SW 1018,8 7 0 0,0
21.10.2019 18:00:00 14,6 13,1 13,8 14,5 14,1 13,3 6 4 16 9 SW 1018,3 8 0 0,0
21.10.2019 17:00:00 15,0 13,3 14,6 15,2 14,1 13,3 6 4 12 6 SSE 1017,6 11 0 0,0
21.10.2019 16:00:00 15,4 13,2 15,2 15,7 13,9 13,3 7 4 16 9 SW 1018,4 13 0 0,0
21.10.2019 15:00:00 15,7 13,0 16,4 16,2 13,5 13,3 8 4 18 10 SSW 1018,2 15 1 0,0
21.10.2019 14:00:00 15,0 12,8 15,8 16,0 13,1 13,3 11 6 19 10 E 1017,6 15 2 0,0
21.10.2019 13:00:00 14,8 12,8 15,8 14,6 12,9 13,3 16 9 27 14 E 1017,6 17 1 0,0
21.10.2019 12:00:00 14,1 12,5 14,9 13,7 12,7 13,3 18 10 30 16 E 1017,9 14 0 0,0
21.10.2019 11:00:00 13,7 12,3 13,9 13,2 12,5 13,3 21 11 33 18 E 1017,4 15 0 0,0
21.10.2019 10:00:00 13,5 12,0 13,4 12,8 12,4 13,3 15 8 32 17 E 1017,2 22 0 0,0
21.10.2019 09:00:00 13,2 11,8 12,9 12,3 12,4 13,3 19 10 33 18 ENE 1016,7 24 0 0,0
21.10.2019 08:00:00 13,1 11,8 12,8 12,1 12,4 13,3 13 7 29 16 ENE 1016,5 24 0 0,0
21.10.2019 07:00:00 12,6 11,1 12,1 11,9 12,5 13,3 16 9 40 22 E 1016,2 40 0 0,0
21.10.2019 06:00:00 12,5 10,8 11,7 11,9 12,6 13,3 24 13 35 19 ENE 1015,1 40 0 0,0
21.10.2019 05:00:00 12,2 10,3 11,6 12,1 12,6 13,3 23 12 33 18 NE 1015,4 66 0 0,0
21.10.2019 04:00:00 12,3 11,1 11,8 12,2 12,7 13,3 18 10 30 16 NE 1015,4 35 0 0,0
21.10.2019 03:00:00 12,4 11,4 11,9 12,3 12,7 13,4 19 11 27 15 NE 1015,1 40 0 0,0
21.10.2019 02:00:00 12,5 11,8 12,1 12,3 12,8 13,4 18 10 34 19 ENE 1014,5 20 0 0,0
21.10.2019 01:00:00 12,0 11,1 11,6 12,3 12,8 13,4 17 9 26 14 ENE 1014,0 40 0 0,0
21.10.2019 00:00:00 12,2 11,6 11,9 12,4 12,9 13,4 16 8 22 12 NE 1014,2 18 0 0,0
20.10.2019 23:00:00 12,3 11,9 11,6 12,5 13,0 13,4 10 6 16 9 NE 1014,2 12 0 0,2
20.10.2019 22:00:00 12,2 11,7 11,6 12,8 13,1 13,4 9 5 13 7 NE 1013,8 9 0 0,2
20.10.2019 21:00:00 12,6 11,8 12,1 13,0 13,2 13,4 7 4 16 9 NNE 1013,7 40 0 0,0
20.10.2019 20:00:00 12,7 11,9 12,3 13,3 13,3 13,4 7 4 10 5 NE 1013,5 28 0 0,0
20.10.2019 19:00:00 12,7 11,8 12,3 13,6 13,4 13,4 5 3 11 6 ENE 1013,0 35 0 0,0
20.10.2019 18:00:00 13,0 11,6 12,9 14,1 13,4 13,4 6 3 10 5 E 1012,6 35 0 0,0
20.10.2019 17:00:00 13,3 11,8 13,3 14,8 13,2 13,4 7 4 11 6 E 1012,1 30 0 0,0
20.10.2019 16:00:00 14,3 12,4 14,7 15,0 13,0 13,4 5 3 8 4 NE 1012,0 40 0 0,0
20.10.2019 15:00:00 14,6 12,0 15,0 15,1 12,7 13,4 3 2 8 5 NW 1011,9 45 0 0,0
20.10.2019 14:00:00 14,3 12,0 15,0 14,7 12,3 13,4 4 2 6 4 ENE 1011,8 38 0 0,0
20.10.2019 13:00:00 14,1 11,5 14,9 14,2 11,9 13,4 2 1 8 4 N 1011,4 31 1 0,0
20.10.2019 12:00:00 13,4 11,5 13,0 13,1 11,6 13,4 3 1 8 4 SSE 1011,6 40 3 0,0
20.10.2019 11:00:00 12,3 11,1 12,1 11,8 11,4 13,4 4 2 9 5 SE 1011,3 34 0 0,0
20.10.2019 10:00:00 11,9 10,9 11,3 11,1 11,3 13,4 6 3 13 7 SSW 1010,8 33 0 0,1
20.10.2019 09:00:00 11,6 10,6 10,9 10,7 11,3 13,4 6 3 11 6 SSW 1010,5 32 0 0,1
20.10.2019 08:00:00 11,7 10,4 10,6 10,4 11,4 13,4 4 2 14 7 S 1009,8 31 0 0,0
20.10.2019 07:00:00 11,3 10,4 10,0 10,2 11,4 13,4 5 3 9 5 S 1009,2 50 0 0,0
20.10.2019 06:00:00 11,2 10,1 9,6 10,2 11,5 13,4 4 2 12 6 S 1008,9 50 0 0,0
20.10.2019 05:00:00 11,6 10,2 9,3 10,4 11,6 13,4 5 3 15 8 SSW 1008,9 50 0 0,0
20.10.2019 04:00:00 11,7 10,2 10,3 10,6 11,7 13,4 5 3 12 7 S 1008,8 50 0 0,0
20.10.2019 03:00:00 11,6 10,4 10,1 10,6 11,8 13,4 6 4 13 7 SSE 1008,4 50 0 0,0
20.10.2019 02:00:00 12,2 10,5 10,9 11,0 11,8 13,4 7 4 17 9 S 1008,6 55 0 0,0
20.10.2019 01:00:00 12,3 10,4 11,6 11,0 11,9 13,4 11 6 22 12 SSE 1008,7 55 0 0,0
20.10.2019 00:00:00 12,2 10,4 10,9 11,0 12,0 13,4 10 5 24 13 SSE 1008,2 55 0 0,0
19.10.2019 23:00:00 12,2 10,4 11,6 10,8 12,1 13,4 10 6 23 13 SSE 1008,3 55 0 0,0
19.10.2019 22:00:00 11,9 10,5 10,8 10,8 12,3 13,4 13 7 23 13 SSE 1008,3 45 0 0,0
19.10.2019 21:00:00 12,2 10,7 11,0 11,2 12,5 13,4 12 7 24 13 SSE 1008,3 45 0 0,0
19.10.2019 20:00:00 12,4 10,6 10,9 11,5 12,7 13,4 10 5 21 12 SSE 1008,5 50 0 0,0
19.10.2019 19:00:00 13,1 10,7 11,7 12,1 12,9 13,4 8 5 17 9 SSE 1008,5 60 0 0,0
19.10.2019 18:00:00 13,6 10,3 12,1 13,0 12,9 13,4 9 5 20 11 SSE 1008,3 60 6 0,0
19.10.2019 17:00:00 14,6 9,8 13,7 14,0 12,8 13,4 10 5 24 13 SSE 1008,2 60 36 0,0
19.10.2019 16:00:00 14,9 8,7 14,5 14,3 12,6 13,4 13 7 29 16 S 1008,5 55 8 0,0
19.10.2019 15:00:00 15,5 8,3 15,4 14,8 12,1 13,4 13 7 27 15 S 1008,8 55 59 0,0
19.10.2019 14:00:00 15,2 9,0 15,4 14,2 11,6 13,4 14 7 28 15 S 1009,2 70 59 0,0
19.10.2019 13:00:00 13,7 8,7 13,7 12,9 11,1 13,4 11 6 29 15 S 1009,3 65 42 0,0
19.10.2019 12:00:00 12,4 8,3 12,6 11,4 10,8 13,4 11 6 20 11 S 1009,6 55 28 0,0
19.10.2019 11:00:00 10,7 7,7 10,5 10,1 10,6 13,4 8 5 18 10 SSE 1009,7 65 0 0,0
19.10.2019 10:00:00 9,9 7,2 9,5 9,2 10,6 13,4 9 5 17 9 SSE 1009,7 70 0 0,0
19.10.2019 09:00:00 9,4 7,0 8,5 8,6 10,7 13,4 8 4 18 10 S 1010,0 60 0 0,0
19.10.2019 08:00:00 9,1 6,7 7,8 8,4 10,9 13,4 9 5 19 10 S 1009,9 70 0 0,0
19.10.2019 07:00:00 9,1 6,5 7,4 8,4 11,1 13,4 9 5 23 12 SSW 1009,4 70 0 0,0
19.10.2019 06:00:00 9,4 6,6 8,1 8,7 11,3 13,4 14 8 22 12 S 1009,4 75 0 0,0
19.10.2019 05:00:00 9,2 6,5 8,0 8,7 11,5 13,4 13 7 23 12 S 1009,4 66 0 0,0
19.10.2019 04:00:00 9,4 6,5 7,8 8,9 11,8 13,4 12 7 23 13 SSW 1009,5 65 0 0,0
19.10.2019 03:00:00 9,7 6,8 7,9 9,2 12,1 13,4 10 6 25 13 SSW 1009,2 65 0 0,0
19.10.2019 02:00:00 10,4 6,8 8,8 9,6 12,5 13,4 11 6 22 12 SSW 1008,9 65 0 0,0
19.10.2019 01:00:00 10,6 7,0 8,8 10,1 12,8 13,4 14 7 27 15 SSW 1008,9 70 0 0,0
19.10.2019 00:00:00 10,9 7,3 9,2 10,6 13,2 13,4 12 6 27 15 SW 1008,4 70 0 0,0
18.10.2019 23:00:00 11,3 7,7 9,8 11,3 13,6 13,4 13 7 28 15 SW 1008,1 75 0 0,0
18.10.2019 22:00:00 12,1 8,0 10,2 12,4 13,8 13,4 16 8 33 18 SW 1007,4 75 0 0,3
18.10.2019 21:00:00 12,1 9,5 10,9 13,1 14,1 13,4 9 5 27 14 S 1007,3 31 0 0,2
18.10.2019 20:00:00 12,2 9,6 11,0 13,7 14,3 13,4 18 10 56 30 WSW 1007,4 31 0 1,1
18.10.2019 19:00:00 15,9 12,7 14,8 14,2 14,4 13,4 12 6 24 13 SSE 1005,3 60 0 0,0
18.10.2019 18:00:00 15,9 12,8 14,2 15,0 14,5 13,4 12 7 29 16 SSE 1005,6 55 37 0,0
18.10.2019 17:00:00 16,7 13,3 16,3 15,9 14,4 13,4 12 7 24 13 SSE 1005,8 50 26 0,0
18.10.2019 16:00:00 15,9 13,1 15,4 16,0 14,2 13,4 11 6 25 14 SSE 1006,7 49 0 0,0
18.10.2019 15:00:00 16,3 13,1 16,3 16,7 13,9 13,4 11 6 25 13 S 1007,4 40 24 0,0
18.10.2019 14:00:00 15,8 12,6 16,0 16,3 13,5 13,4 13 7 24 13 S 1008,0 40 25 0,0
18.10.2019 13:00:00 15,5 13,0 16,4 15,2 13,1 13,4 11 6 26 14 S 1008,8 35 4 0,0
18.10.2019 12:00:00 15,2 12,7 15,6 14,4 12,9 13,4 10 6 22 12 S 1009,3 30 11 0,0
18.10.2019 11:00:00 13,7 12,6 13,7 13,3 12,8 13,4 10 5 21 12 SSW 1009,8 17 0 0,0
18.10.2019 10:00:00 13,6 12,7 13,6 12,9 12,7 13,4 11 6 24 13 SSW 1009,7 19 0 0,0
18.10.2019 09:00:00 13,0 12,6 12,8 12,5 12,7 13,4 9 5 18 10 S 1009,9 10 0 0,0
18.10.2019 08:00:00 12,8 12,3 12,5 12,3 12,7 13,4 8 5 18 10 S 1009,8 9 0 0,0
18.10.2019 07:00:00 12,7 12,3 12,4 12,3 12,7 13,4 8 4 18 10 S 1010,1 12 0 0,1
18.10.2019 06:00:00 12,6 12,2 12,1 12,3 12,8 13,4 10 5 18 10 SE 1010,2 9 0 0,9
18.10.2019 05:00:00 12,8 12,4 12,3 12,3 12,8 13,4 8 4 13 7 SSE 1010,8 4,0 0 1,3
18.10.2019 04:00:00 13,0 12,4 12,3 12,3 12,9 13,4 6 3 16 8 S 1011,1 12 0 0,9
18.10.2019 03:00:00 13,2 12,2 12,3 12,3 12,9 13,4 10 5 16 9 SSE 1011,3 37 0 0,0
18.10.2019 02:00:00 13,0 12,2 11,4 12,3 13,0 13,4 5 3 10 5 SSE 1011,6 39 0 0,0
18.10.2019 01:00:00 13,4 12,4 12,4 12,4 13,2 13,4 5 3 11 6 SSE 1012,1 43 0 0,0
18.10.2019 00:00:00 12,6 11,9 9,3 12,4 13,3 13,4 5 3 9 5 SSE 1012,1 35 0 0,0
17.10.2019 23:00:00 13,8 12,4 12,4 13,0 13,4 13,4 5 3 14 7 S 1012,4 45 0 0,0
17.10.2019 22:00:00 14,5 12,5 13,5 13,3 13,5 13,4 8 4 14 8 SSW 1012,4 45 0 0,0
17.10.2019 21:00:00 14,5 12,7 13,0 13,5 13,5 13,4 5 3 15 8 SSW 1012,3 48 0 0,0
17.10.2019 20:00:00 14,7 12,6 13,9 13,8 13,6 13,4 9 5 19 11 S 1012,3 50 0 0,0
17.10.2019 19:00:00 15,4 12,4 14,6 14,0 13,6 13,4 10 5 18 10 SSW 1012,1 50 0 0,0
17.10.2019 18:00:00 15,7 12,5 15,0 14,4 13,6 13,4 10 5 17 9 SSW 1011,8 55 0 0,0
17.10.2019 17:00:00 16,2 12,1 15,6 14,8 13,5 13,4 9 5 27 14 SW 1011,6 60 0 0,0
17.10.2019 16:00:00 16,3 12,2 15,9 15,1 13,3 13,4 13 7 24 13 SW 1011,2 55 8 0,0
17.10.2019 15:00:00 15,7 12,1 15,5 14,7 13,1 13,4 13 7 30 16 SSW 1011,0 55 0 0,0
17.10.2019 14:00:00 15,8 12,0 15,7 15,0 12,8 13,4 13 7 29 16 SSW 1010,8 55 1 0,0
17.10.2019 13:00:00 15,6 12,4 16,2 14,9 12,4 13,4 13 7 29 16 SSW 1010,7 55 0 0,0
17.10.2019 12:00:00 14,8 12,1 15,3 14,4 12,0 13,4 14 7 27 14 SSW 1010,7 50 5 0,0
17.10.2019 11:00:00 13,8 11,8 14,0 12,8 11,7 13,4 13 7 21 11 SSW 1010,6 50 0 0,0
17.10.2019 10:00:00 13,0 11,9 12,9 11,9 11,5 13,4 9 5 20 11 S 1010,5 35 0 0,1
17.10.2019 09:00:00 12,0 11,4 11,6 11,1 11,4 13,4 6 4 20 11 S 1010,2 16 0 0,4
17.10.2019 08:00:00 11,8 11,0 11,2 10,7 11,4 13,4 11 6 19 10 S 1009,8 6 0 0,0
17.10.2019 07:00:00 11,4 10,5 10,8 10,4 11,3 13,4 8 4 15 8 S 1009,7 21 0 0,0
17.10.2019 06:00:00 10,9 10,2 10,2 10,1 11,4 13,4 7 4 16 9 S 1009,9 21 0 0,0
17.10.2019 05:00:00 10,4 9,6 9,7 9,6 11,5 13,4 9 5 15 8 S 1010,1 20 0 0,0
17.10.2019 04:00:00 9,0 8,7 7,3 9,1 11,8 13,4 4 2 13 7 S 1010,1 9 0 0,0
17.10.2019 03:00:00 9,8 9,1 7,6 9,5 12,0 13,4 9 5 16 8 SSW 1010,3 10 0 0,0
17.10.2019 02:00:00 10,1 9,4 8,5 10,1 12,3 13,4 8 5 17 9 SSW 1010,2 9 0 0,0
17.10.2019 01:00:00 10,7 9,9 9,4 10,7 12,5 13,4 10 5 21 11 SSW 1009,9 13 0 0,0
17.10.2019 00:00:00 11,5 10,5 10,0 11,3 12,7 13,4 8 5 26 14 SW 1009,6 20 0 0,0
16.10.2019 23:00:00 12,4 11,1 11,2 12,2 12,8 13,4 14 7 27 15 WSW 1009,4 18 0 0,1
16.10.2019 22:00:00 12,7 11,9 12,1 12,4 12,8 13,4 11 6 27 14 WSW 1009,1 10 0 0,3
16.10.2019 21:00:00 12,6 11,7 12,2 12,5 12,8 13,4 16 8 28 15 WSW 1008,5 22 0 0,0
16.10.2019 20:00:00 12,8 11,8 12,3 12,7 12,8 13,4 20 11 35 19 W 1008,1 23 0 0,3
16.10.2019 19:00:00 13,2 12,6 12,7 12,8 12,8 13,4 16 9 31 17 W 1007,5 7 0 1,2
16.10.2019 18:00:00 13,3 12,5 12,8 12,9 12,8 13,4 19 10 31 17 W 1006,8 30 0 0,4
16.10.2019 17:00:00 13,2 12,6 12,9 12,8 12,7 13,4 14 8 23 12 W 1006,3 2,7 0 1,5
16.10.2019 16:00:00 12,8 12,4 12,5 12,8 12,7 13,4 9 5 22 12 W 1006,1 3,2 0 1,1
16.10.2019 15:00:00 12,7 12,1 12,5 12,8 12,6 13,4 10 5 20 11 WSW 1005,7 25 0 1,6
16.10.2019 14:00:00 12,5 12,2 12,5 12,7 12,5 13,4 12 6 19 10 NW 1004,8 3,5 0 1,9
16.10.2019 13:00:00 12,4 12,0 12,3 12,6 12,5 13,4 11 6 22 12 NW 1005,3 8 0 0,2
16.10.2019 12:00:00 12,3 12,0 12,4 12,5 12,4 13,4 11 6 19 10 WNW 1004,8 2,3 0 0,0
16.10.2019 11:00:00 12,1 11,8 12,2 12,5 12,2 13,4 11 6 16 9 W 1004,4 5 0 0,0

tt = Température de l'air
td = dewpoint
tt 5cm = Température de l'air 5cm
tt -5cm = Température de l'air -5cm
tt -20cm = Température de l'air -20cm
tt -100cm = Température de l'air -100cm
ff = Vitesse du vent
fx = gusts
dd = Direction du vent
ppp = reduced air pressure
vv = visibility
sd = Ensoleillement
rr = Quantités de précipitations

stations d'obs. à proximité